Terug naar catalogus

STARLINK-1132

ActiefCommunicatieVLEO
NORAD 45044·PAYLOAD·🇺🇸 United States

Gelanceerd Jan 29, 2020 vanaf Cape Canaveral Space Force Station

Loading…

Volgende Passages (komende 24 uur)

TLE

VersSource: CelesTrak SupGP

Epoch: Sep 15, 2026, 01:47 UTC

1 45044C 20006A   26258.07479167  .00028564  00000+0  20466-3 0  2582
2 45044  53.1459  56.7760 0000784 264.7612 159.3052 15.73006841    15

Volg STARLINK-1132 in realtime met AllMySat

Download on the App Store